DWI4600 MDSD-MGGT

Flight info

Callsign DWI4600
Flight time N/A
Altitude 34000
Route ETBOD2L ETBOD DCT AVALU UL577 KEBET/N0453F350 DCT RONLU/N0453F360 DCT ROTNA DCT PESTO/N0453F350 UZ894 PENRU/N0453F360 DCT ENALO ENALO2C
Aircraft B38M/M-SDE1FGHILORVWXY/HB1

Departure

Time N/A
Airport Las Américas International Airport (MDSD)

Arrival

Time 2026-04-16 15:10
Airport La Aurora International Airport (MGGT)
Time Latitude Longitude Altitude Speed Heading
2026-04-16 12:13 18.58470 -70.22071 16912 ft 362 kts 268°
2026-04-16 12:13 18.58372 -70.24744 17496 ft 365 kts 268°
2026-04-16 12:13 18.58273 -70.27434 18091 ft 368 kts 268°
2026-04-16 12:13 18.58173 -70.30162 18602 ft 372 kts 268°
2026-04-16 12:14 18.58071 -70.32901 19118 ft 374 kts 268°
2026-04-16 12:14 18.57971 -70.35610 19641 ft 375 kts 268°
2026-04-16 12:14 18.57867 -70.38378 20166 ft 377 kts 268°
2026-04-16 12:14 18.57763 -70.41161 20676 ft 379 kts 268°
2026-04-16 12:15 18.57662 -70.43851 21177 ft 381 kts 268°
2026-04-16 12:15 18.57566 -70.46382 21629 ft 383 kts 268°
2026-04-16 12:15 18.57459 -70.49213 22111 ft 386 kts 268°
2026-04-16 12:15 18.57353 -70.52010 22595 ft 389 kts 268°
2026-04-16 12:16 18.57243 -70.54876 23083 ft 391 kts 268°
2026-04-16 12:16 18.57133 -70.57747 23578 ft 393 kts 268°
2026-04-16 12:16 18.57022 -70.60622 23998 ft 395 kts 268°
2026-04-16 12:16 18.56910 -70.63536 24428 ft 398 kts 268°
2026-04-16 12:17 18.56796 -70.66454 24844 ft 400 kts 268°
2026-04-16 12:17 18.56682 -70.69401 25248 ft 402 kts 268°
2026-04-16 12:17 18.56568 -70.72330 25652 ft 404 kts 268°
2026-04-16 12:17 18.56451 -70.75305 26050 ft 406 kts 268°
2026-04-16 12:18 18.56333 -70.78289 26448 ft 408 kts 268°
2026-04-16 12:18 18.56214 -70.81295 26840 ft 410 kts 268°
2026-04-16 12:18 18.56095 -70.84288 27219 ft 413 kts 268°
2026-04-16 12:18 18.55974 -70.87323 27580 ft 415 kts 268°
2026-04-16 12:19 18.55852 -70.90376 27940 ft 417 kts 268°
2026-04-16 12:19 18.55729 -70.93445 28296 ft 420 kts 269°
2026-04-16 12:19 18.55605 -70.96500 28644 ft 422 kts 269°
2026-04-16 12:19 18.55479 -70.99612 28996 ft 424 kts 269°
2026-04-16 12:20 18.55353 -71.02707 29339 ft 427 kts 269°
2026-04-16 12:20 18.55225 -71.05849 29673 ft 429 kts 269°
2026-04-16 12:20 18.55095 -71.09014 30013 ft 431 kts 269°
2026-04-16 12:20 18.54965 -71.12155 30289 ft 433 kts 269°
2026-04-16 12:21 18.54833 -71.15354 30560 ft 435 kts 269°
2026-04-16 12:21 18.54702 -71.18517 30829 ft 438 kts 269°
2026-04-16 12:21 18.54567 -71.21745 31099 ft 440 kts 269°
2026-04-16 12:21 18.54431 -71.24987 31356 ft 442 kts 269°
2026-04-16 12:22 18.54295 -71.28201 31607 ft 444 kts 269°
2026-04-16 12:22 18.54158 -71.31466 31866 ft 446 kts 269°
2026-04-16 12:22 18.54019 -71.34749 32122 ft 449 kts 269°
2026-04-16 12:22 18.53880 -71.38028 32365 ft 451 kts 269°
2026-04-16 12:23 18.53738 -71.41348 32604 ft 453 kts 269°
2026-04-16 12:23 18.53594 -71.44687 32868 ft 455 kts 269°
2026-04-16 12:23 18.53452 -71.47983 33178 ft 455 kts 269°
2026-04-16 12:23 18.53307 -71.51334 33518 ft 455 kts 269°
2026-04-16 12:24 18.53164 -71.54626 33848 ft 454 kts 269°
2026-04-16 12:24 18.53018 -71.57979 34144 ft 454 kts 269°
2026-04-16 12:24 18.52872 -71.61303 34439 ft 454 kts 269°
2026-04-16 12:24 18.52728 -71.64590 34710 ft 453 kts 269°
2026-04-16 12:25 18.52581 -71.67922 34978 ft 453 kts 269°
2026-04-16 12:25 18.52435 -71.71212 35242 ft 452 kts 269°
2026-04-16 12:25 18.52287 -71.74522 35501 ft 452 kts 269°
2026-04-16 12:25 18.52139 -71.77841 35757 ft 451 kts 269°
2026-04-16 12:26 18.51991 -71.81150 35980 ft 451 kts 269°
2026-04-16 12:26 18.51844 -71.84421 36031 ft 450 kts 269°
2026-04-16 12:26 18.51646 -71.90979 36032 ft 449 kts 271°
2026-04-16 12:27 18.51517 -71.97551 36019 ft 449 kts 271°
2026-04-16 12:27 18.51377 -72.04146 36010 ft 449 kts 271°
2026-04-16 12:28 18.51234 -72.10746 36007 ft 450 kts 271°
2026-04-16 12:28 18.51089 -72.17319 36006 ft 450 kts 271°
2026-04-16 12:29 18.50942 -72.23884 36007 ft 450 kts 271°
2026-04-16 12:29 18.50791 -72.30479 36005 ft 451 kts 271°
2026-04-16 12:30 18.50638 -72.37117 36005 ft 451 kts 271°
2026-04-16 12:30 18.50483 -72.43698 36007 ft 451 kts 271°
2026-04-16 12:31 18.50325 -72.50331 36006 ft 452 kts 272°
2026-04-16 12:31 18.50167 -72.56925 36003 ft 452 kts 272°
2026-04-16 12:32 18.50004 -72.63566 36002 ft 452 kts 272°
2026-04-16 12:32 18.49840 -72.70162 36012 ft 452 kts 272°
2026-04-16 12:33 18.49672 -72.76811 36018 ft 452 kts 272°
2026-04-16 12:33 18.49504 -72.83410 36020 ft 452 kts 272°
2026-04-16 12:34 18.49333 -72.90013 36018 ft 452 kts 271°
2026-04-16 12:34 18.48579 -72.96633 36020 ft 455 kts 265°
2026-04-16 12:35 18.47696 -73.03226 36024 ft 456 kts 265°
2026-04-16 12:35 18.46802 -73.09849 36025 ft 456 kts 265°
2026-04-16 12:36 18.45908 -73.16453 36027 ft 456 kts 265°
2026-04-16 12:36 18.45014 -73.23040 36030 ft 456 kts 265°
2026-04-16 12:37 18.44110 -73.29681 36027 ft 456 kts 265°
2026-04-16 12:37 18.43210 -73.36274 36025 ft 456 kts 265°
2026-04-16 12:38 18.42303 -73.42903 36024 ft 456 kts 265°
2026-04-16 12:38 18.41400 -73.49486 36030 ft 456 kts 265°
2026-04-16 12:39 18.40489 -73.56110 36029 ft 456 kts 265°
2026-04-16 12:39 18.39578 -73.62716 36033 ft 456 kts 265°
2026-04-16 12:40 18.38664 -73.69317 36032 ft 456 kts 265°
2026-04-16 12:40 18.37753 -73.75895 36032 ft 457 kts 265°
2026-04-16 12:41 18.36831 -73.82529 36035 ft 456 kts 265°
2026-04-16 12:41 18.35913 -73.89114 36034 ft 456 kts 265°
2026-04-16 12:42 18.34991 -73.95710 36024 ft 457 kts 265°
2026-04-16 12:42 18.34062 -74.02347 36043 ft 457 kts 265°
2026-04-16 12:43 18.33134 -74.08954 36036 ft 457 kts 265°
2026-04-16 12:43 18.32203 -74.15567 36041 ft 457 kts 265°
2026-04-16 12:44 18.31271 -74.22174 36023 ft 457 kts 265°
2026-04-16 12:44 18.30490 -74.27686 36023 ft 457 kts 265°
2026-04-16 12:45 18.29548 -74.34333 36024 ft 457 kts 265°
2026-04-16 12:45 18.28611 -74.40923 36015 ft 457 kts 265°
2026-04-16 12:46 18.27668 -74.47538 36014 ft 458 kts 265°
2026-04-16 12:46 18.26721 -74.54172 36012 ft 458 kts 265°
2026-04-16 12:47 18.25771 -74.60805 36011 ft 458 kts 265°
2026-04-16 12:47 18.24703 -74.67403 36016 ft 460 kts 261°
2026-04-16 12:48 18.23366 -74.73999 36012 ft 460 kts 262°
2026-04-16 12:48 18.22070 -74.80552 36013 ft 460 kts 262°
2026-04-16 12:49 18.20772 -74.87122 36009 ft 460 kts 262°
2026-04-16 12:49 18.19466 -74.93720 36015 ft 460 kts 262°
2026-04-16 12:50 18.18152 -75.00342 36013 ft 461 kts 262°
2026-04-16 12:50 18.16841 -75.06943 36013 ft 461 kts 262°
2026-04-16 12:51 18.15529 -75.13530 36014 ft 461 kts 262°
2026-04-16 12:51 18.14216 -75.20118 36014 ft 461 kts 262°
2026-04-16 12:52 18.12895 -75.26727 36009 ft 461 kts 262°
2026-04-16 12:52 18.11583 -75.33283 36010 ft 461 kts 262°
2026-04-16 12:53 18.10252 -75.39919 36012 ft 461 kts 262°
2026-04-16 12:53 18.08932 -75.46490 36016 ft 462 kts 262°
2026-04-16 12:54 18.07599 -75.53112 36015 ft 462 kts 262°
2026-04-16 12:54 18.06275 -75.59679 36018 ft 462 kts 262°
2026-04-16 12:55 18.04933 -75.66321 36017 ft 462 kts 262°
2026-04-16 12:55 18.03596 -75.72925 36015 ft 462 kts 262°
2026-04-16 12:56 18.02262 -75.79509 36017 ft 462 kts 262°
2026-04-16 12:56 18.00925 -75.86093 36020 ft 462 kts 263°
2026-04-16 12:57 17.99579 -75.92704 36024 ft 462 kts 262°
2026-04-16 12:57 17.98239 -75.99277 36021 ft 462 kts 262°
2026-04-16 12:58 17.96896 -76.05851 36018 ft 462 kts 263°
2026-04-16 12:58 17.95548 -76.12439 36024 ft 462 kts 263°
2026-04-16 12:59 17.94191 -76.19061 36019 ft 462 kts 263°
2026-04-16 13:00 17.92161 -76.28942 36031 ft 462 kts 263°
2026-04-16 13:00 17.90810 -76.35503 36025 ft 462 kts 263°
2026-04-16 13:01 17.89444 -76.42125 36019 ft 462 kts 263°
2026-04-16 13:01 17.88085 -76.48701 36004 ft 462 kts 263°
2026-04-16 13:02 17.86713 -76.55325 36007 ft 462 kts 263°
2026-04-16 13:02 17.85351 -76.61900 35998 ft 462 kts 263°
2026-04-16 13:03 17.84116 -76.67844 35993 ft 462 kts 263°
2026-04-16 13:03 17.82744 -76.74438 35993 ft 462 kts 263°
2026-04-16 13:04 17.81373 -76.81022 35990 ft 462 kts 263°
2026-04-16 13:04 17.80007 -76.87569 36013 ft 462 kts 263°
2026-04-16 13:05 17.78670 -76.94152 36003 ft 459 kts 268°
2026-04-16 13:05 17.78402 -77.00767 36002 ft 454 kts 273°
2026-04-16 13:06 17.78190 -77.07389 36006 ft 454 kts 274°
2026-04-16 13:06 17.77985 -77.14021 36007 ft 454 kts 274°
2026-04-16 13:07 17.77779 -77.20638 36007 ft 454 kts 273°
2026-04-16 13:07 17.77572 -77.27231 36013 ft 454 kts 274°
2026-04-16 13:08 17.77361 -77.33863 36008 ft 454 kts 274°
2026-04-16 13:08 17.77148 -77.40494 36016 ft 454 kts 274°
2026-04-16 13:09 17.76934 -77.47087 36018 ft 454 kts 274°
2026-04-16 13:09 17.76716 -77.53712 36019 ft 454 kts 274°
2026-04-16 13:10 17.76497 -77.60340 36018 ft 454 kts 273°
2026-04-16 13:10 17.76275 -77.66962 36018 ft 454 kts 274°
2026-04-16 13:11 17.76051 -77.73596 36019 ft 455 kts 273°
2026-04-16 13:11 17.75825 -77.80227 36020 ft 455 kts 273°
2026-04-16 13:12 17.75597 -77.86821 36017 ft 455 kts 273°
2026-04-16 13:12 17.75367 -77.93449 36018 ft 455 kts 273°
2026-04-16 13:13 17.75134 -78.00071 36019 ft 455 kts 273°
2026-04-16 13:13 17.74899 -78.06708 36019 ft 455 kts 273°
2026-04-16 13:14 17.74661 -78.13352 36024 ft 455 kts 273°
2026-04-16 13:14 17.74419 -78.20006 36021 ft 455 kts 273°
2026-04-16 13:15 17.74179 -78.26611 36023 ft 455 kts 273°
2026-04-16 13:15 17.73933 -78.33269 36022 ft 456 kts 273°
2026-04-16 13:16 17.73686 -78.39918 36021 ft 456 kts 273°
2026-04-16 13:16 17.73439 -78.46520 36023 ft 456 kts 274°
2026-04-16 13:17 17.73187 -78.53160 36022 ft 456 kts 274°
2026-04-16 13:17 17.72933 -78.59823 36022 ft 456 kts 274°
2026-04-16 13:18 17.72677 -78.66472 36022 ft 456 kts 274°
2026-04-16 13:18 17.72418 -78.73119 36024 ft 457 kts 274°
2026-04-16 13:19 17.72157 -78.79778 36024 ft 457 kts 274°
2026-04-16 13:19 17.71894 -78.86433 36022 ft 457 kts 274°
2026-04-16 13:20 17.71630 -78.93060 36022 ft 457 kts 274°
2026-04-16 13:20 17.71362 -78.99722 36022 ft 457 kts 274°
2026-04-16 13:21 17.71093 -79.06380 36023 ft 457 kts 274°
2026-04-16 13:21 17.70821 -79.13063 36024 ft 457 kts 274°
2026-04-16 13:22 17.70548 -79.19689 36024 ft 457 kts 274°
2026-04-16 13:22 17.70262 -79.26349 36022 ft 458 kts 274°
2026-04-16 13:23 17.69969 -79.33027 36023 ft 458 kts 274°
2026-04-16 13:23 17.69676 -79.39691 36024 ft 457 kts 274°
2026-04-16 13:24 17.69380 -79.46359 36025 ft 458 kts 274°
2026-04-16 13:24 17.69083 -79.53031 36025 ft 458 kts 274°
2026-04-16 13:25 17.68782 -79.59716 36026 ft 458 kts 274°
2026-04-16 13:25 17.68481 -79.66337 36024 ft 458 kts 274°
2026-04-16 13:26 17.68176 -79.73014 36024 ft 458 kts 275°
2026-04-16 13:26 17.67870 -79.79679 36024 ft 458 kts 275°
2026-04-16 13:27 17.67560 -79.86361 36023 ft 458 kts 275°
2026-04-16 13:27 17.67249 -79.93021 36024 ft 458 kts 275°
2026-04-16 13:28 17.66937 -79.99654 36024 ft 458 kts 275°
2026-04-16 13:28 17.66622 -80.06315 36026 ft 458 kts 275°
2026-04-16 13:29 17.66303 -80.12991 36035 ft 458 kts 275°
2026-04-16 13:29 17.65983 -80.19657 36025 ft 458 kts 275°
2026-04-16 13:30 17.65660 -80.26327 36033 ft 458 kts 275°
2026-04-16 13:30 17.65335 -80.32990 36031 ft 458 kts 275°
2026-04-16 13:31 17.65009 -80.39632 36032 ft 458 kts 275°
2026-04-16 13:31 17.64680 -80.46289 36025 ft 458 kts 275°
2026-04-16 13:32 17.64348 -80.52960 36026 ft 457 kts 275°
2026-04-16 13:32 17.64015 -80.59623 36029 ft 457 kts 275°
2026-04-16 13:33 17.63681 -80.66246 36028 ft 457 kts 275°
2026-04-16 13:33 17.63399 -80.71809 36030 ft 457 kts 275°
2026-04-16 13:34 17.63060 -80.78460 36030 ft 456 kts 275°
2026-04-16 13:34 17.62720 -80.85069 36030 ft 456 kts 275°
2026-04-16 13:35 17.62378 -80.91701 36029 ft 456 kts 275°
2026-04-16 13:35 17.62032 -80.98342 36032 ft 455 kts 275°
2026-04-16 13:36 17.61685 -81.04974 36033 ft 455 kts 275°
2026-04-16 13:36 17.61338 -81.11550 36033 ft 454 kts 274°
2026-04-16 13:37 17.60987 -81.18161 36034 ft 454 kts 274°
2026-04-16 13:37 17.60635 -81.24768 36035 ft 454 kts 274°
2026-04-16 13:38 17.60280 -81.31364 36035 ft 453 kts 274°
2026-04-16 13:38 17.59923 -81.37977 36037 ft 453 kts 274°
2026-04-16 13:39 17.59567 -81.44532 36035 ft 453 kts 274°
2026-04-16 13:39 17.59206 -81.51130 36033 ft 453 kts 274°
2026-04-16 13:40 17.58843 -81.57720 36033 ft 453 kts 274°
2026-04-16 13:40 17.58478 -81.64312 36034 ft 453 kts 274°
2026-04-16 13:41 17.58111 -81.70891 36032 ft 452 kts 274°
2026-04-16 13:41 17.57743 -81.77470 36039 ft 452 kts 274°
2026-04-16 13:42 17.57374 -81.84024 36040 ft 452 kts 274°
2026-04-16 13:42 17.57002 -81.90606 36041 ft 452 kts 274°
2026-04-16 13:43 17.56628 -81.97183 36039 ft 452 kts 273°
2026-04-16 13:43 17.56234 -82.03769 36039 ft 454 kts 270°
2026-04-16 13:43 17.55498 -82.07024 36049 ft 465 kts 256°
2026-04-16 13:44 17.54430 -82.10222 36025 ft 466 kts 258°
2026-04-16 13:44 17.52325 -82.16653 36038 ft 466 kts 257°
2026-04-16 13:45 17.50184 -82.23065 36042 ft 466 kts 257°
2026-04-16 13:45 17.48036 -82.29475 36039 ft 466 kts 257°
2026-04-16 13:46 17.45902 -82.35837 36044 ft 466 kts 257°
2026-04-16 13:46 17.43753 -82.42238 36042 ft 466 kts 257°
2026-04-16 13:47 17.41604 -82.48628 36044 ft 465 kts 257°
2026-04-16 13:47 17.39451 -82.55022 36046 ft 465 kts 257°
2026-04-16 13:48 17.37303 -82.61396 36046 ft 464 kts 257°
2026-04-16 13:48 17.35148 -82.67784 36046 ft 464 kts 256°
2026-04-16 13:49 17.32998 -82.74149 36044 ft 464 kts 256°
2026-04-16 13:49 17.30858 -82.80476 36047 ft 463 kts 256°
2026-04-16 13:50 17.28706 -82.86832 36043 ft 463 kts 256°
2026-04-16 13:50 17.26553 -82.93182 36045 ft 463 kts 256°
2026-04-16 13:51 17.24399 -82.99529 36044 ft 463 kts 256°
2026-04-16 13:51 17.22243 -83.05875 36047 ft 462 kts 256°
2026-04-16 13:52 17.20084 -83.12221 36049 ft 462 kts 256°
2026-04-16 13:52 17.17936 -83.18529 36051 ft 462 kts 256°
2026-04-16 13:53 17.15779 -83.24855 36054 ft 462 kts 256°
2026-04-16 13:53 17.13616 -83.31191 36053 ft 462 kts 256°
2026-04-16 13:54 17.11458 -83.37507 36049 ft 462 kts 256°
2026-04-16 13:54 17.09293 -83.43836 36052 ft 462 kts 256°
2026-04-16 13:55 17.07130 -83.50150 36052 ft 461 kts 256°
2026-04-16 13:55 17.04962 -83.56475 36053 ft 461 kts 256°
2026-04-16 13:56 17.02810 -83.62741 36050 ft 461 kts 256°
2026-04-16 13:56 17.00645 -83.69040 36053 ft 460 kts 255°
2026-04-16 13:57 16.98479 -83.75336 36053 ft 460 kts 255°
2026-04-16 13:57 16.96312 -83.81627 36054 ft 460 kts 255°
2026-04-16 13:58 16.93063 -83.91051 36053 ft 459 kts 255°
2026-04-16 13:58 16.90892 -83.97336 36054 ft 459 kts 255°
2026-04-16 13:59 16.88723 -84.03606 36056 ft 458 kts 255°
2026-04-16 13:59 16.86569 -84.09826 36058 ft 458 kts 255°
2026-04-16 14:00 16.84408 -84.16064 36057 ft 457 kts 255°
2026-04-16 14:00 16.82236 -84.22323 36060 ft 457 kts 255°
2026-04-16 14:01 16.80084 -84.28516 36059 ft 457 kts 255°
2026-04-16 14:01 16.77914 -84.34759 36060 ft 456 kts 255°
2026-04-16 14:02 16.75747 -84.40985 36060 ft 456 kts 255°
2026-04-16 14:02 16.73579 -84.47205 36058 ft 456 kts 255°
2026-04-16 14:03 16.71412 -84.53418 36057 ft 455 kts 255°
2026-04-16 14:03 16.69243 -84.59627 36058 ft 455 kts 255°
2026-04-16 14:04 16.67087 -84.65796 36057 ft 455 kts 255°
2026-04-16 14:04 16.64914 -84.72003 36056 ft 455 kts 255°
2026-04-16 14:05 16.62744 -84.78198 36053 ft 455 kts 255°
2026-04-16 14:05 16.60570 -84.84395 36051 ft 455 kts 254°
2026-04-16 14:06 16.58393 -84.90596 36052 ft 454 kts 254°
2026-04-16 14:06 16.56222 -84.96773 36053 ft 454 kts 254°
2026-04-16 14:07 16.54042 -85.02968 36053 ft 454 kts 254°
2026-04-16 14:07 16.51878 -85.09112 36049 ft 454 kts 254°
2026-04-16 14:08 16.49699 -85.15293 36051 ft 454 kts 254°
2026-04-16 14:08 16.47518 -85.21471 36047 ft 454 kts 254°
2026-04-16 14:09 16.45335 -85.27650 36048 ft 454 kts 254°
2026-04-16 14:09 16.43150 -85.33827 36049 ft 454 kts 254°
2026-04-16 14:10 16.40966 -85.39995 36048 ft 454 kts 254°
2026-04-16 14:10 16.38792 -85.46129 36048 ft 453 kts 254°
2026-04-16 14:11 16.36608 -85.52282 36050 ft 453 kts 254°
2026-04-16 14:11 16.34422 -85.58438 36053 ft 453 kts 253°
2026-04-16 14:12 16.32234 -85.64589 36054 ft 453 kts 253°
2026-04-16 14:12 16.30049 -85.70728 36059 ft 452 kts 253°
2026-04-16 14:13 16.27876 -85.76828 36058 ft 452 kts 253°
2026-04-16 14:13 16.25686 -85.82968 36057 ft 452 kts 253°
2026-04-16 14:14 16.23497 -85.89098 36060 ft 452 kts 253°
2026-04-16 14:14 16.21308 -85.95223 36061 ft 451 kts 253°
2026-04-16 14:15 16.19119 -86.01341 36060 ft 451 kts 253°
2026-04-16 14:15 16.16928 -86.07457 36055 ft 451 kts 253°
2026-04-16 14:16 16.14738 -86.13569 36047 ft 451 kts 253°
2026-04-16 14:16 16.12585 -86.19568 36046 ft 450 kts 253°
2026-04-16 14:17 16.10350 -86.25791 36044 ft 450 kts 253°
2026-04-16 14:17 16.08158 -86.31886 36039 ft 450 kts 253°
2026-04-16 14:18 16.05960 -86.37992 36040 ft 450 kts 253°
2026-04-16 14:18 16.03779 -86.44043 36035 ft 449 kts 253°
2026-04-16 14:19 16.01587 -86.50123 36033 ft 449 kts 253°
2026-04-16 14:19 15.99389 -86.56210 36029 ft 449 kts 253°
2026-04-16 14:20 15.97194 -86.62286 36026 ft 448 kts 253°
2026-04-16 14:20 15.95367 -86.67334 36034 ft 448 kts 252°
2026-04-16 14:21 15.93173 -86.73395 36041 ft 448 kts 252°
2026-04-16 14:21 15.90979 -86.79449 36043 ft 448 kts 252°
2026-04-16 14:22 15.88780 -86.85509 36045 ft 447 kts 252°
2026-04-16 14:22 15.86595 -86.91528 36047 ft 447 kts 252°
2026-04-16 14:23 15.84401 -86.97561 36045 ft 447 kts 252°
2026-04-16 14:23 15.82203 -87.03605 36045 ft 447 kts 252°
2026-04-16 14:24 15.80003 -87.09644 36038 ft 446 kts 252°
2026-04-16 14:24 15.77805 -87.15673 36036 ft 446 kts 252°
2026-04-16 14:25 15.75608 -87.21694 36021 ft 446 kts 252°
2026-04-16 14:25 15.73423 -87.27677 36018 ft 446 kts 252°
2026-04-16 14:26 15.71223 -87.33694 36019 ft 445 kts 252°
2026-04-16 14:26 15.69024 -87.39702 36015 ft 445 kts 252°
2026-04-16 14:27 15.66825 -87.45706 36016 ft 445 kts 252°
2026-04-16 14:27 15.64629 -87.51694 36021 ft 445 kts 251°
2026-04-16 14:28 15.62423 -87.57702 36020 ft 445 kts 251°
2026-04-16 14:28 15.60223 -87.63694 36020 ft 445 kts 251°
2026-04-16 14:29 15.58014 -87.69700 36039 ft 444 kts 251°
2026-04-16 14:29 15.55821 -87.75657 36046 ft 444 kts 251°
2026-04-16 14:30 15.53615 -87.81647 36045 ft 444 kts 251°
2026-04-16 14:30 15.51443 -87.87537 35888 ft 432 kts 251°
2026-04-16 14:31 15.50377 -87.90424 35658 ft 426 kts 251°
2026-04-16 14:31 15.49321 -87.93284 35426 ft 423 kts 251°
2026-04-16 14:31 15.48274 -87.96120 35207 ft 421 kts 251°
2026-04-16 14:31 15.47227 -87.98954 34972 ft 420 kts 251°
2026-04-16 14:32 15.46182 -88.01781 34747 ft 419 kts 251°
2026-04-16 14:32 15.45143 -88.04590 34527 ft 418 kts 251°
2026-04-16 14:32 15.44105 -88.07396 34305 ft 416 kts 251°
2026-04-16 14:32 15.43064 -88.10208 34087 ft 415 kts 251°
2026-04-16 14:33 15.42029 -88.13000 33834 ft 414 kts 251°
2026-04-16 14:33 15.40996 -88.15790 33586 ft 414 kts 251°
2026-04-16 14:33 15.39964 -88.18575 33329 ft 414 kts 251°
2026-04-16 14:33 15.38928 -88.21367 33077 ft 415 kts 251°
2026-04-16 14:34 15.37908 -88.24117 32848 ft 415 kts 251°
2026-04-16 14:34 15.36876 -88.26897 32597 ft 415 kts 251°
2026-04-16 14:34 15.35834 -88.29704 32345 ft 416 kts 251°
2026-04-16 14:34 15.34794 -88.32507 32098 ft 416 kts 251°
2026-04-16 14:35 15.33751 -88.35314 31851 ft 417 kts 251°
2026-04-16 14:35 15.32708 -88.38121 31612 ft 417 kts 251°
2026-04-16 14:35 15.31676 -88.40895 31371 ft 418 kts 251°
2026-04-16 14:35 15.30628 -88.43712 31129 ft 419 kts 251°
2026-04-16 14:36 15.29581 -88.46526 30876 ft 420 kts 251°
2026-04-16 14:36 15.28528 -88.49355 30369 ft 421 kts 250°
2026-04-16 14:36 15.27471 -88.52192 29726 ft 425 kts 250°
2026-04-16 14:36 15.26405 -88.55052 29172 ft 424 kts 250°
2026-04-16 14:37 15.25346 -88.57895 28733 ft 421 kts 250°
2026-04-16 14:37 15.24291 -88.60723 28274 ft 419 kts 251°
2026-04-16 14:37 15.23244 -88.63530 27822 ft 418 kts 251°
2026-04-16 14:37 15.22199 -88.66330 27358 ft 416 kts 251°
2026-04-16 14:38 15.21159 -88.69114 26894 ft 414 kts 251°
2026-04-16 14:38 15.20122 -88.71891 26446 ft 412 kts 251°
2026-04-16 14:38 15.19133 -88.74661 25919 ft 412 kts 252°
2026-04-16 14:38 15.18167 -88.77447 25487 ft 409 kts 252°
2026-04-16 14:39 15.17200 -88.80220 25051 ft 407 kts 252°
2026-04-16 14:39 15.16238 -88.82977 24601 ft 406 kts 252°
2026-04-16 14:39 15.15285 -88.85703 24145 ft 405 kts 252°
2026-04-16 14:39 15.14328 -88.88441 23692 ft 404 kts 252°
2026-04-16 14:40 15.13372 -88.91172 23151 ft 403 kts 252°
2026-04-16 14:40 15.12420 -88.93890 22641 ft 401 kts 252°
2026-04-16 14:40 15.11469 -88.96607 22219 ft 398 kts 252°
2026-04-16 14:40 15.10529 -88.99289 21774 ft 396 kts 252°
2026-04-16 14:41 15.09593 -89.01960 21323 ft 393 kts 252°
2026-04-16 14:41 15.08660 -89.04622 20880 ft 391 kts 251°
2026-04-16 14:41 15.07734 -89.07260 20431 ft 390 kts 251°
2026-04-16 14:41 15.06823 -89.09857 20001 ft 388 kts 251°
2026-04-16 14:42 15.05902 -89.12482 19561 ft 387 kts 251°
2026-04-16 14:42 15.04984 -89.15095 19114 ft 385 kts 251°
2026-04-16 14:42 15.04072 -89.17690 18675 ft 384 kts 251°
2026-04-16 14:42 15.03158 -89.20290 18162 ft 384 kts 251°
2026-04-16 14:43 15.02368 -89.22925 17373 ft 389 kts 259°
2026-04-16 14:43 15.01792 -89.25621 16880 ft 377 kts 258°
2026-04-16 14:43 15.01216 -89.28155 16389 ft 366 kts 257°
2026-04-16 14:43 15.00639 -89.30639 16569 ft 334 kts 257°
2026-04-16 14:44 15.00101 -89.32925 16489 ft 322 kts 257°
2026-04-16 14:44 14.99564 -89.35191 16091 ft 326 kts 257°
2026-04-16 14:44 14.99021 -89.37475 15809 ft 325 kts 257°
2026-04-16 14:44 14.98482 -89.39743 15592 ft 324 kts 257°
2026-04-16 14:45 14.97942 -89.42007 15340 ft 323 kts 257°
2026-04-16 14:45 14.97412 -89.44230 15128 ft 322 kts 257°
2026-04-16 14:45 14.96877 -89.46475 14917 ft 321 kts 257°
2026-04-16 14:45 14.96343 -89.48711 14698 ft 320 kts 256°
2026-04-16 14:46 14.95811 -89.50943 14510 ft 319 kts 256°
2026-04-16 14:46 14.95279 -89.53171 14324 ft 318 kts 256°
2026-04-16 14:46 14.94749 -89.55387 14169 ft 317 kts 256°
2026-04-16 14:46 14.94221 -89.57601 14031 ft 317 kts 256°
2026-04-16 14:47 14.93483 -89.59748 13891 ft 316 kts 246°
2026-04-16 14:47 14.92621 -89.61839 13741 ft 315 kts 247°
2026-04-16 14:47 14.91785 -89.63928 13706 ft 314 kts 248°
2026-04-16 14:47 14.90961 -89.66024 13684 ft 314 kts 248°
2026-04-16 14:48 14.90144 -89.68121 13690 ft 314 kts 248°
2026-04-16 14:48 14.89332 -89.70221 13720 ft 314 kts 248°
2026-04-16 14:48 14.88522 -89.72319 13767 ft 314 kts 248°
2026-04-16 14:48 14.87712 -89.74420 13831 ft 315 kts 248°
2026-04-16 14:49 14.86914 -89.76493 13866 ft 315 kts 248°
2026-04-16 14:49 14.86103 -89.78600 13904 ft 315 kts 248°
2026-04-16 14:49 14.85292 -89.80705 13916 ft 315 kts 248°
2026-04-16 14:49 14.84478 -89.82813 13928 ft 316 kts 248°
2026-04-16 14:50 14.83666 -89.84921 13944 ft 316 kts 248°
2026-04-16 14:50 14.82852 -89.87031 13964 ft 315 kts 248°
2026-04-16 14:50 14.82041 -89.89134 14001 ft 316 kts 248°
2026-04-16 14:50 14.81227 -89.91245 14023 ft 316 kts 248°
2026-04-16 14:51 14.80414 -89.93350 14050 ft 316 kts 248°
2026-04-16 14:51 14.79600 -89.95459 14077 ft 316 kts 248°
2026-04-16 14:51 14.78786 -89.97563 14118 ft 316 kts 248°
2026-04-16 14:51 14.77970 -89.99675 14134 ft 316 kts 248°
2026-04-16 14:53 14.72748 -90.13176 12925 ft 270 kts 248°
2026-04-16 14:53 14.72050 -90.14979 12605 ft 269 kts 249°
2026-04-16 14:54 14.71360 -90.16758 12279 ft 267 kts 249°
2026-04-16 14:54 14.70673 -90.18533 11983 ft 264 kts 249°
2026-04-16 14:54 14.69992 -90.20291 11678 ft 263 kts 249°
2026-04-16 14:54 14.69315 -90.22035 11388 ft 260 kts 249°
2026-04-16 14:55 14.68646 -90.23761 11095 ft 258 kts 249°
2026-04-16 14:55 14.67981 -90.25475 10817 ft 254 kts 250°
2026-04-16 14:55 14.67334 -90.27146 10501 ft 253 kts 250°
2026-04-16 14:55 14.66684 -90.28817 10278 ft 249 kts 250°
2026-04-16 14:56 14.66038 -90.30479 9978 ft 249 kts 250°
2026-04-16 14:56 14.65396 -90.32133 9691 ft 247 kts 250°
2026-04-16 14:56 14.64756 -90.33784 9362 ft 246 kts 250°
2026-04-16 14:56 14.64122 -90.35417 9045 ft 245 kts 250°
2026-04-16 14:57 14.63505 -90.37005 8952 ft 236 kts 249°
2026-04-16 14:57 14.62891 -90.38585 8951 ft 237 kts 250°
2026-04-16 14:57 14.62271 -90.40177 8949 ft 243 kts 250°
2026-04-16 14:57 14.61632 -90.41820 8989 ft 245 kts 249°
2026-04-16 14:58 14.60993 -90.43464 8975 ft 246 kts 250°
2026-04-16 14:58 14.59729 -90.46712 8935 ft 245 kts 250°
2026-04-16 14:58 14.59093 -90.48346 8939 ft 245 kts 250°
2026-04-16 14:59 14.58457 -90.49982 8935 ft 245 kts 249°
2026-04-16 14:59 14.57763 -90.51542 8835 ft 237 kts 235°
2026-04-16 14:59 14.56482 -90.52573 8531 ft 235 kts 199°
2026-04-16 14:59 14.56087 -90.52690 8445 ft 235 kts 190°
2026-04-16 15:05 14.54827 -90.52685 8300 ft 232 kts 168°
2026-04-16 15:05 14.53278 -90.52292 8048 ft 228 kts 166°
2026-04-16 15:05 14.51746 -90.51902 7780 ft 226 kts 166°
2026-04-16 15:06 14.50245 -90.51518 7510 ft 225 kts 166°
2026-04-16 15:06 14.48725 -90.51168 7263 ft 221 kts 175°
2026-04-16 15:06 14.47738 -90.51303 7124 ft 214 kts 204°
2026-04-16 15:06 14.46562 -90.52775 6924 ft 203 kts 260°
2026-04-16 15:07 14.46678 -90.54212 6893 ft 204 kts 289°
2026-04-16 15:07 14.47052 -90.55100 6859 ft 206 kts 307°
2026-04-16 15:07 14.48199 -90.55873 6612 ft 198 kts 354°
2026-04-16 15:07 14.49460 -90.55566 6305 ft 186 kts 28°
2026-04-16 15:08 14.51112 -90.55028 5723 ft 172 kts 12°
2026-04-16 15:08 14.52206 -90.54738 5658 ft 157 kts 19°
2026-04-16 15:08 14.52527 -90.54623 5687 ft 158 kts 19°
2026-04-16 15:08 14.53062 -90.54431 5659 ft 158 kts 20°
2026-04-16 15:09 14.54086 -90.54077 5551 ft 156 kts 18°
2026-04-16 15:09 14.55128 -90.53767 5379 ft 156 kts 17°
2026-04-16 15:09 14.56155 -90.53446 5191 ft 152 kts 18°
2026-04-16 15:09 14.57143 -90.53126 5003 ft 144 kts 16°
2026-04-16 15:10 14.58006 -90.52855 4989 ft 113 kts 17°
2026-04-16 15:10 14.58607 -90.52660 4999 ft 68 kts 18°
2026-04-16 15:10 14.58928 -90.52554 5011 ft 37 kts 17°
2026-04-16 15:10 14.59145 -90.52485 5021 ft 19 kts 17°
2026-04-16 15:11 14.59208 -90.52503 5018 ft 6 kts 282°
2026-04-16 15:11 14.59187 -90.52540 5023 ft 7 kts 212°
2026-04-16 15:11 14.59139 -90.52556 5020 ft 9 kts 195°
2026-04-16 15:11 14.59068 -90.52576 5019 ft 12 kts 202°
2026-04-16 15:12 14.58972 -90.52613 5013 ft 17 kts 197°
2026-04-16 15:12 14.58930 -90.52626 5010 ft 7 kts 196°
2026-04-16 15:12 14.58867 -90.52645 5009 ft 11 kts 197°
2026-04-16 15:12 14.58800 -90.52666 5007 ft 6 kts 201°
2026-04-16 15:13 14.58784 -90.52706 5007 ft 7 kts 281°
2026-04-16 15:13 14.58807 -90.52749 5009 ft 7 kts 314°
2026-04-16 15:13 14.58851 -90.52776 5010 ft 8 kts 337°
2026-04-16 15:13 14.58907 -90.52779 5009 ft 9 kts 13°
2026-04-16 15:14 14.58968 -90.52760 5010 ft 10 kts 17°
2026-04-16 15:14 14.59034 -90.52737 5010 ft 11 kts 18°
2026-04-16 15:14 14.59103 -90.52715 5010 ft 10 kts 17°
2026-04-16 15:14 14.59159 -90.52697 5010 ft 7 kts 17°
2026-04-16 15:15 14.59198 -90.52686 5011 ft 4 kts
2026-04-16 15:15 14.59204 -90.52691 5011 ft 1 kts 306°
2026-04-16 15:15 14.59209 -90.52736 5012 ft 12 kts 277°
2026-04-16 15:15 14.59235 -90.52838 5013 ft 15 kts 287°
2026-04-16 15:16 14.59224 -90.52929 5013 ft 12 kts 236°
2026-04-16 15:16 14.59169 -90.52961 5013 ft 7 kts 191°
2026-04-16 15:16 14.59132 -90.52973 5013 ft 4 kts 198°
2026-04-16 15:16 14.59098 -90.52984 5013 ft 7 kts 198°
2026-04-16 15:17 14.59035 -90.53004 5013 ft 10 kts 192°
2026-04-16 15:17 14.59009 -90.52991 5014 ft 2 kts 126°
2026-04-16 15:17 14.59003 -90.52976 5015 ft 4 kts 109°
2026-04-16 15:17 14.58997 -90.52956 5015 ft 2 kts 108°
2026-04-16 15:18 14.58996 -90.52953 5015 ft 0 kts 108°